[[{"header":{"parameterUnit":"m.s-1","parameterCategory":1,"la1":30.2992,"la2":30.254,"lo1":-89.0895,"lo2":-89.0443,"dy":0.0025,"dx":0.0025,"nx":19,"ny":19,"refTime":"2026-03-18T03:00:00:Z","depth":0,"parameterNumber":2,"parameterNumberName":"U-component_of_WINDS"},"data":[0,0,0,2.1263,2.1267,2.1445,2.1446,2.166,2.1661,0,0,0,0,0,0,0,0,0,0,0,2.1202,2.1203,2.1263,2.1267,2.1445,2.1446,2.1659,2.1661,0,0,0,0,0,0,0,0,0,0,0,2.1201,2.1203,2.1204,2.1268,2.1445,2.1446,2.1659,2.153,0,0,0,0,0,0,0,0,0,0,2.1359,2.1294,2.1203,2.1204,2.1269,2.1445,2.1446,2.1524,2.1538,2.1573,0,2.1602,0,2.1635,2.1675,2.1676,0,0,0,2.1274,2.1282,2.1338,2.1205,2.1271,2.1445,2.1367,2.1532,2.1548,2.1591,2.1605,2.1613,2.1638,2.1676,2.1677,2.1856,2.1856,0,0,2.1264,2.1229,2.1327,2.1348,2.1319,2.1361,2.1372,2.1541,2.1554,2.1606,2.1618,2.1642,2.1677,2.1679,2.1855,2.1856,0,0,0,2.1231,2.1222,2.1274,2.1339,2.1372,2.1366,2.1379,2.1547,2.1566,2.1621,2.1644,2.1679,2.1681,2.1855,2.1856,2.1846,0,0,0,2.1226,2.1203,2.127,2.125,2.1368,2.1461,2.138,2.1555,2.1575,2.1643,2.1679,2.1683,2.1854,2.1855,2.1845,2.1847,0,0,0,2.1193,2.12,2.1222,2.1248,2.1323,2.146,2.1489,2.156,2.1589,2.1676,2.1684,2.1854,2.1855,2.1844,2.1846,2.1882,0,0,0,2.1149,2.1213,2.1222,2.1303,2.1322,2.1453,2.1489,2.1588,2.1662,2.168,2.1854,2.1856,2.1844,2.1845,2.1881,2.1904,2.1911,0,0,2.121,2.1219,2.1269,2.1282,2.1402,2.1428,2.1548,2.1648,2.1689,2.1798,2.1803,2.1845,2.1846,2.1881,2.1968,2.1973,0,0,0,2.1277,2.1312,2.1352,2.1419,2.1498,2.1564,2.165,2.1687,2.1781,2.1738,2.1871,2.1872,2.1894,2.1907,2.1912,2.1932,2.1861,2.1861,2.186,2.1313,2.136,2.1446,2.1515,2.158,2.1668,2.1725,2.179,2.182,2.1851,2.1882,2.1929,2.1942,2.1946,2.1967,2.1901,2.1901,2.1901,2.1901,2.1405,2.1461,2.1499,2.1595,2.1645,2.1727,2.1813,2.1832,2.1914,2.1909,2.1931,2.1919,2.195,2.1971,2.1901,2.1901,2.1901,2.1901,2.1901,2.1431,2.1466,2.1511,2.1612,2.1686,2.1754,2.1831,2.1875,2.1917,2.1939,2.1976,2.1976,2.198,2.1954,2.1954,2.1954,2.1954,2.1954,2.1955,2.144,2.149,2.155,2.1637,2.1686,2.1755,2.1843,2.1892,2.1958,2.1983,2.1984,2.2009,2.1945,2.1927,2.1957,2.1957,2.1956,2.1956,2.1956,2.1511,2.1502,2.1593,2.1642,2.1748,2.1816,2.1872,2.1967,2.2014,2.205,2.2072,2.2018,2.203,2.2027,2.2012,2.2063,2.2063,2.2063,2.2063,2.1532,2.1543,2.1645,2.1719,2.1797,2.1856,2.1956,2.2025,2.2096,2.2127,2.2127,2.2112,2.2106,2.2122,2.2116,2.2102,2.2175,2.2175,2.2175,2.1577,2.1597,2.1674,2.1742,2.1828,2.19,2.1996,2.2079,2.2157,2.2181,2.2153,2.2148,2.2123,2.2113,2.2134,2.2125,2.2101,0,0]},{"header":{"parameterUnit":"m.s-1","parameterCategory":1,"la1":30.2992,"la2":30.254,"lo1":-89.0895,"lo2":-89.0443,"dy":0.0025,"dx":0.0025,"nx":19,"ny":19,"refTime":"2026-03-18T03:00:00:Z","depth":0,"parameterNumber":3,"parameterNumberName":"V-component_of_WINDS"},"data":[0,0,0,3.837,3.8372,3.8472,3.8473,3.8591,3.8592,0,0,0,0,0,0,0,0,0,0,0,3.8338,3.8338,3.8369,3.8372,3.8472,3.8473,3.8591,3.8592,0,0,0,0,0,0,0,0,0,0,0,3.8337,3.8338,3.8339,3.8372,3.8472,3.8473,3.859,3.8517,0,0,0,0,0,0,0,0,0,0,3.8421,3.8391,3.8338,3.8339,3.8373,3.8472,3.8473,3.8514,3.8522,3.8542,0,3.8563,0,3.858,3.8599,3.86,0,0,0,3.8372,3.8384,3.8413,3.8339,3.8374,3.8472,3.8427,3.8518,3.8527,3.8552,3.8565,3.857,3.8582,3.86,3.8601,3.8725,3.8725,0,0,3.8367,3.8354,3.8407,3.8419,3.8408,3.8424,3.843,3.8524,3.8535,3.8566,3.8573,3.8584,3.8601,3.8602,3.8725,3.8725,0,0,0,3.835,3.835,3.8377,3.8414,3.8433,3.8427,3.8434,3.8531,3.8541,3.8574,3.8585,3.8602,3.8603,3.8724,3.8725,3.8741,0,0,0,3.8347,3.834,3.8375,3.8368,3.8432,3.8484,3.8439,3.8535,3.8546,3.8584,3.8602,3.8604,3.8723,3.8724,3.8739,3.875,0,0,0,3.8332,3.8339,3.8353,3.8367,3.841,3.8483,3.8499,3.8537,3.8552,3.86,3.8604,3.8723,3.8724,3.8738,3.8747,3.8778,0,0,0,3.831,3.8365,3.8353,3.8417,3.8409,3.8494,3.8498,3.8561,3.8604,3.8602,3.8723,3.8725,3.8737,3.8746,3.8776,3.8801,3.8811,0,0,3.8372,3.8372,3.8411,3.8403,3.8487,3.8479,3.8564,3.8614,3.8628,3.8691,3.8694,3.874,3.8747,3.8778,3.8871,3.8878,0,0,0,3.8425,3.8453,3.8478,3.852,3.8561,3.8596,3.8635,3.8652,3.8707,3.8659,3.876,3.8765,3.8783,3.8795,3.8802,3.8817,3.873,3.873,3.873,3.8492,3.851,3.8575,3.8604,3.8644,3.8683,3.8716,3.8746,3.8751,3.8774,3.8792,3.8847,3.8861,3.8866,3.8882,3.8808,3.8808,3.8808,3.8808,3.8582,3.8624,3.863,3.8695,3.8711,3.8764,3.8802,3.8804,3.8853,3.8835,3.8852,3.883,3.8874,3.8889,3.8809,3.8809,3.8809,3.8809,3.8809,3.8628,3.865,3.8673,3.8734,3.8778,3.8805,3.8852,3.8865,3.8877,3.8894,3.8913,3.8913,3.8913,3.8903,3.8903,3.8903,3.8903,3.8903,3.8904,3.8665,3.8691,3.8731,3.8779,3.8806,3.8844,3.8882,3.8908,3.8939,3.8945,3.8945,3.8945,3.8876,3.8858,3.8907,3.8906,3.8906,3.8905,3.8905,3.8748,3.8732,3.8794,3.8822,3.8877,3.8918,3.8935,3.8986,3.9009,3.9031,3.9029,3.8976,3.8976,3.8971,3.8955,3.9026,3.9026,3.9026,3.9026,3.8785,3.8787,3.8854,3.8897,3.894,3.8961,3.9026,3.9055,3.9081,3.9096,3.9087,3.9068,3.9063,3.9066,3.9059,3.9044,3.9136,3.9137,3.9137,3.8836,3.8843,3.8899,3.8928,3.8971,3.9007,3.9068,3.9114,3.914,3.9141,3.9107,3.9102,3.9072,3.9061,3.9061,3.905,3.9024,0,0]}]]